Regional Weather Roundup
Issued by NWS Cleveland, OH

Home | Current Version | Previous Version | Text Only | Print | Product List | Glossary Off
Versions: 1 2 3 4 5 6 7 8 9 10 11 12 13 14 15 16 17 18 19 20 21 22 23 24 25 26 27 28 29 30 31 32 33 34 35 36 37 38 39 40 41 42 43 44 45 46 47 48 49 50

000
ASUS41 KCLE 301410
RWRCLE
OHIO REGIONAL WEATHER ROUNDUP
NATIONAL WEATHER SERVICE WILMINGTON, OH
1000 AM EDT TUE AUG 30 2016

NOTE: "FAIR" INDICATES FEW OR NO CLOUDS BELOW 12,000 FEET WITH NO
SIGNIFICANT WEATHER AND/OR OBSTRUCTIONS TO VISIBILITY.

OHZ001>008-015>018-024>027-034-035-043-044-301500-
   NORTHWEST OHIO

CITY           SKY/WX    TMP DP  RH WIND       PRES   REMARKS
DEFIANCE       FAIR      75  63  66 CALM      30.17F
FINDLAY        FAIR      73  62  68 S5        30.17F
TOLEDO EXPRESS FAIR      72  65  78 CALM      30.17F
TOLEDO EXEC    FAIR      72  63  73 CALM      30.18F
LIMA           FAIR      74  66  76 S5        30.18F
$$

OHZ009>014-019>023-028>033-038-089-301500-
   NORTHEAST OHIO

CITY           SKY/WX    TMP DP  RH WIND       PRES   REMARKS
CLE-HOPKINS    FAIR      76  58  53 S5        30.20S
CLE-LAKEFRONT  FAIR      77  59  53 S7        30.17S
CUY CO. ARPT   SUNNY     77  63  61 SE5       30.20S
LORAIN-ELYRIA  FAIR      71  61  70 VRB3      30.20S
ASHTABULA      FAIR      72  65  78 E3        30.20F
AKRON-CANTON   FAIR      74  57  55 VRB3      30.20S
WOOSTER        FAIR      71  59  65 SE5       30.20F
MANSFIELD      FAIR      75  58  55 S6        30.20S
YOUNGSTOWN     FAIR      71  61  70 E5        30.20R
$$

OHZ042-051>053-060>062-070>072-077>081-301500-
  SOUTHWEST OHIO

CITY           SKY/WX    TMP DP  RH WIND       PRES   REMARKS
CINC-COVINGTON FAIR      78  69  73 E3        30.17F
CINC-LUNKEN    FAIR      76  70  82 N3        30.17S
HAMILTON       FAIR      77  67  71 CALM      30.18F
DAYTON         FAIR      75  63  66 SE5       30.19F
WRIGHT-PAT AFB FAIR      75  64  68 CALM      30.18S
DAYTON GENERAL FAIR      77  64  64 E5        30.18S
WILMINGTON     FAIR      74  67  78 CALM      30.18F
$$

OHZ036-037-039>041-045>050-054>059-063>069-073>076-082>088-301500-
  CENTRAL AND SOUTHEAST OHIO

CITY           SKY/WX    TMP DP  RH WIND       PRES   REMARKS
COLUMBUS       FAIR      75  61  61 CALM      30.17F
OSU AIRPORT    FAIR      76  62  62 CALM      30.18S
BOLTON FIELD   SUNNY     75  64  69 CALM      30.19S
RICKENBACK AFB FAIR      72  64  76 CALM      30.18S
NEWARK         FAIR      74  61  63 CALM      30.18F
MARION         FAIR      73  59  61 S3        30.19S
LANCASTER      FAIR      74  64  71 CALM      30.18F
ZANESVILLE     FAIR      72  62  71 CALM      30.18F
NEW PHILLY     FAIR      74  60  61 CALM      30.19S
$$




USA.gov is the U.S. government's official web portal to all federal, state and local government web resources and services.